Location: Addison Town Hall
(32.9525°N, 96.8158°W)
Time: 00:54:40
(UTC+00:00)

H-2A R/B - Pass Details

Date: 08 March 2021
Orbit: 501 x 538 km, 97.3° (Epoch: 12 March)

Event Time Altitude Azimuth Distance (km) Brightness Sun altitude
Rises 12:05:34 0° 5° (N) 2,695 6.4 -9.3°
Reaches altitude 10° 12:07:44 10° 0° (N) 1,798 5.5 -8.9°
Maximum altitude 12:11:30 51° 285° (WNW) 674 2.9 -8.1°
Drops below altitude 10° 12:15:14 10° 208° (SSW) 1,774 5.2 -7.3°
Sets 12:17:22 0° 203° (SSW) 2,654 6.1 -6.9°
